Weather in Tarlag

Russia / Tyva Republic     52°04′01″N   93°24′34″E
temp.,
°C
wind,
m/s
gust,
m/s
humid.,
%
clouds,
%
prec.,
mm/h
press.,
hPa
HPBL,
m
28 february, sun
sun2801:00−25wsw1288100 0.0 104120
04:00−27wsw129072 0.0 104219
07:00−28sw118881 0.0 104419
10:00−23ene118895 0.0 1043150
13:00−19ene228689 0.0 1041346
16:00−17e228493 0.0 1039369
19:00−24sse119790 0.0 104020
22:00−26ssw119121 0.0 104120
1 march, mon
mon101:00−25ese119261 0.0 103920
04:00−24ese0192100 0.0 103720
07:00−24se1192100 0.0 103621
10:00−20e1187100 0.0 1033209
13:00−17e1282100 0.0 1029389
16:00−15e1283100 0.0 1026381
19:00−19sse1190100 0.0 102625
22:00−19sse1188100 0.0 102522
2 march, tue
tue201:00−19se1188100 0.0 102322
04:00−19sse1188100 0.0 102228
07:00−18se1192100 0.0 102227
10:00−14ene1189100 0.0 1021159
13:00−10ene1189100 0.1 1019233
16:00−8ene1190100 0.3 1018196
19:00−12ese1193100 0.6 102025
22:00−15se119295 0.0 102120
3 march, wed
wed301:00−16ene009597 0.1 102020
04:00−14ene1194100 0.0 101820
07:00−15ne0095100 0.0 101820
10:00−11ene0093100 0.3 1016126
13:00−8ene2190100 0.4 1014309
16:00−6ene1191100 0.1 1013241
19:00−9sse1196100 0.2 101421
22:00−9wnw2589100 0.2 1017170
4 march, thu
thu401:00−11w3576100 0.2 102085
04:00−15wsw3376100 0.0 102230
07:00−18w237883 0.0 102623
10:00−13nw12780 0.0 1027171
13:00−10ne127910 0.0 1027558
16:00−9e117836 0.0 1027396
19:00−17ese119521 0.1 102920
22:00−18ssw11910 0.0 103120